Find Starlink 30564

NORAD ID: 58043 Int'l Des: 2023-156 Owner: SPXS Country: US Constellation: starlink operational
LEOCIRCULAR

Live Position

Loading 3D Globe...

About Starlink 30564

Description loading...

Upcoming Passes

Passes for default location (London). Set your location on the main map for personalized predictions.

Altitude History

Loading altitude history...

Two-Line Element Set

1 58043U 23156R 26125.45938028 .00093028 00000-0 31147-2 0 9992
2 58043 53.1585 174.7955 0001119 81.3982 278.7146 15.30192210145009
Epoch: May 5, 2026 • Age: 7 hours

Current Status

Altitude 475.9 km
Velocity 7.63 km/s
Sub-Earth Point 26.17°N, 160.63°W
Launch Date Oct 9, 2023
Age 2.5 years
Type internet

Technical Details

Classification Payload
Mass 730.00 kg
Dry Mass 700.00 kg
Total Mass 730.00 kg
Length 0.30 m
Diameter 4.10 m
Span 29.00 m
Shape Box + pan
Manufacturer SPXS
Bus Type Starlink V2M
Phase Status In Orbit
Owner/State SPXS/US

Most Searched